This is the latest recevied weather packets stored in our database for station/object KQ4NAL. If no packets are shown the sender has not sent any weather packets the latest 10 day(s).
| Time | Temp. | Humidity | Pressure | Rain* | Wind** | Luminosity | Snow |
|---|---|---|---|---|---|---|---|
| 1778165775 | 12.78° C | 43% | 1016.7 hPa | 0 mm | - | 792 W/m² | - |
| 1778165473 | 12.22° C | 44% | 1016.9 hPa | 0 mm | - | 760 W/m² | - |
| 1778165174 | 12.22° C | 45% | 1016.7 hPa | 0 mm | - | 747 W/m² | - |
| 1778164873 | 12.22° C | 45% | 1016.7 hPa | 0 mm | - | 735 W/m² | - |
| 1778164568 | 12.22° C | 47% | 1016.7 hPa | 0 mm | - | 727 W/m² | - |
| 1778164266 | 12.78° C | 46% | 1016.9 hPa | 0 mm | - | 687 W/m² | - |
| 1778163961 | 12.22° C | 46% | 1016.9 hPa | 0 mm | - | 675 W/m² | - |
| 1778163658 | 11.67° C | 45% | 1016.9 hPa | 0 mm | - | 671 W/m² | - |
| 1778163354 | 11.67° C | 49% | 1016.9 hPa | 0 mm | - | 689 W/m² | - |
| 1778163051 | 11.67° C | 50% | 1016.9 hPa | 0 mm | - | 663 W/m² | - |
| 1778162748 | 11.67° C | 47% | 1016.8 hPa | 0 mm | - | 645 W/m² | - |
| 1778162446 | 11.11° C | 52% | 1016.9 hPa | 0 mm | - | 622 W/m² | - |
| 1778162142 | 11.11° C | 50% | 1017 hPa | 0 mm | - | 586 W/m² | - |
| 1778161840 | 11.11° C | 50% | 1017 hPa | 0 mm | - | 537 W/m² | - |
| 1778161536 | 11.11° C | 53% | 1016.6 hPa | 0 mm | - | 511 W/m² | - |
| 1778161232 | 10.56° C | 55% | 1017 hPa | 0 mm | - | 505 W/m² | - |
| 1778160928 | 11.11° C | 61% | 1016.8 hPa | 0 mm | - | 441 W/m² | - |
| 1778160627 | 11.11° C | 60% | 1017.2 hPa | 0 mm | - | 420 W/m² | - |
| 1778160322 | 10.56° C | 61% | 1016.8 hPa | 0 mm | - | 410 W/m² | - |
| 1778160019 | 10.56° C | 61% | 1017 hPa | 0 mm | - | 390 W/m² | - |
| 1778159716 | 10° C | 62% | 1016.9 hPa | 0 mm | - | 344 W/m² | - |
| 1778159413 | 10° C | 64% | 1016.9 hPa | 0 mm | - | 335 W/m² | - |
| 1778159110 | 10° C | 65% | 1016.7 hPa | 0 mm | - | 313 W/m² | - |
| 1778158809 | 9.44° C | 65% | 1016.9 hPa | 0 mm | - | 311 W/m² | - |
| 1778158506 | 9.44° C | 67% | 1016.8 hPa | 0 mm | - | 301 W/m² | - |
* Rain latest hour (hover to see other rain measurements)
** Current wind speed in m/s (hover to see current wind gust speed)